This is the latest recevied weather packets stored in our database for station/object KE0LFX. If no packets are shown the sender has not sent any weather packets the latest 10 day(s).
| Time | Temp. | Humidity | Pressure | Rain* | Wind** | Luminosity | Snow |
|---|---|---|---|---|---|---|---|
| 1777856926 | 21.11° C | 33% | 1010.4 hPa | 0 mm | - | 1 W/m² | - |
| 1777856622 | 21.11° C | 33% | 1010.3 hPa | 0 mm | - | 2 W/m² | - |
| 1777856319 | 21.67° C | 32% | 1010.1 hPa | 0 mm | - | 5 W/m² | - |
| 1777856016 | 21.67° C | 31% | 1010.4 hPa | 0 mm | - | 8 W/m² | - |
| 1777855713 | 22.22° C | 31% | 1010.4 hPa | 0 mm | - | 12 W/m² | - |
| 1777855411 | 22.22° C | 30% | 1010.2 hPa | 0 mm | - | 15 W/m² | - |
| 1777855107 | 22.78° C | 31% | 1010.2 hPa | 0 mm | - | 19 W/m² | - |
| 1777854804 | 22.78° C | 30% | 1010.2 hPa | 0 mm | - | 24 W/m² | - |
| 1777854501 | 22.78° C | 30% | 1010.1 hPa | 0 mm | - | 28 W/m² | - |
| 1777854197 | 23.33° C | 30% | 1010.1 hPa | 0 mm | - | 32 W/m² | - |
| 1777853890 | 23.33° C | 30% | 1010.1 hPa | 0 mm | - | 37 W/m² | - |
| 1777853587 | 23.33° C | 29% | 1010 hPa | 0 mm | - | 42 W/m² | - |
| 1777853284 | 23.33° C | 29% | 1009.8 hPa | 0 mm | - | 48 W/m² | - |
| 1777852981 | 23.33° C | 28% | 1010.2 hPa | 0 mm | - | 59 W/m² | - |
| 1777852679 | 23.33° C | 29% | 1010 hPa | 0 mm | - | 71 W/m² | - |
| 1777852376 | 23.89° C | 28% | 1009.7 hPa | 0 mm | - | 83 W/m² | - |
| 1777852073 | 23.89° C | 29% | 1010.1 hPa | 0 mm | - | 93 W/m² | - |
| 1777851765 | 23.89° C | 28% | 1009.9 hPa | 0 mm | - | 104 W/m² | - |
| 1777851462 | 23.89° C | 28% | 1009.7 hPa | 0 mm | - | 109 W/m² | - |
| 1777851158 | 23.89° C | 28% | 1009.9 hPa | 0 mm | - | 119 W/m² | - |
| 1777850855 | 23.89° C | 28% | 1010 hPa | 0 mm | - | 127 W/m² | - |
| 1777850552 | 23.89° C | 29% | 1010.1 hPa | 0 mm | - | 150 W/m² | - |
| 1777850250 | 23.89° C | 29% | 1010 hPa | 0 mm | - | 164 W/m² | - |
| 1777849947 | 23.33° C | 29% | 1010.2 hPa | 0 mm | - | 189 W/m² | - |
| 1777849642 | 23.89° C | 29% | 1009.8 hPa | 0 mm | - | 200 W/m² | - |
* Rain latest hour (hover to see other rain measurements)
** Current wind speed in m/s (hover to see current wind gust speed)